Hourly Data Report for August 10, 2021

ALGONQUIN PARK EAST GATE
ONTARIO
Current Station Operator: ECCC - MSC

45°32'00.000" N
78°16'00.000" W
397.00 m
6080192
71581
TNK

Download Data

Hourly Data (August 2021)
Hourly Data Report for August 10, 2021
TIME
LST
Temp Definition
°C
Dew Point Definition
°C
Rel Hum Definition
%
Precip. Amount Definition
mm

Wind Dir Definition
10's deg

Wind Spd Definition
km/h
Visibility Definition
km
Stn Press Definition
kPa
Hmdx Definition


Wind Chill Definition


Weather Definition


00:00 19.7 19.2 97 0.0   0   97.14     LegendNANA
01:00 19.4 18.9 97 0.0   0   97.07     LegendNANA
02:00 19.2 18.7 97 0.0   0   97.03     LegendNANA
03:00 19.0 18.6 97 0.0   0   96.99     LegendNANA
04:00 18.7 18.2 97 0.0   0   96.98     LegendNANA
05:00 18.6 18.2 98 0.0   0   96.95     LegendNANA
06:00 19.1 18.8 98 0.0   0   96.92     LegendNANA
07:00 20.6 20.0 96 0.0 0 1   96.88 28   LegendNANA
08:00 22.3 20.5 90 0.0 13 3   96.89 30   LegendNANA
09:00 22.4 20.8 91 0.0 18 3   96.87 31   LegendNANA
10:00 23.0 20.8 87 0.0 16 4   96.87 31   LegendNANA
11:00 24.0 20.9 83 0.0 13 6   96.84 32   LegendNANA
12:00 23.9 20.6 82 0.0 13 6   96.77 32   LegendNANA
13:00 25.9 20.9 74 0.0 14 10   96.67 34   LegendNANA
14:00 25.6 20.6 74 0.0 15 6   96.63 34   LegendNANA
15:00 26.2 20.5 71 0.0 14 7   96.56 34   LegendNANA
16:00 25.6 20.1 72 0.0 17 7   96.52 33   LegendNANA
17:00 23.9 20.7 83 0.0 21 2   96.53 32   LegendNANA
18:00 23.7 21.1 85 0.0 23 3   96.53 32   LegendNANA
19:00 23.0 20.8 87 0.0 22 2   96.52 31   LegendNANA
20:00 21.3 20.1 93 0.0   0   96.49 29   LegendNANA
21:00 21.2 20.5 96 0.0 11 4   96.45 29   LegendNANA
22:00 21.2 20.6 96 0.0   0   96.47 29   LegendNANA
23:00 21.4 20.7 96 0.2 23 2   96.45 30   LegendNANA

Notes on Data Quality.

Legend

  • E = Estimated
  • M = Missing
  • NA = Not Available*
  • [empty] = Indicates an unobserved value
Date modified: